Weather History for KBTP - April, 2014

Change the Weather History Date:

Saturday, April 12, 2014

  Actual Average (KPIT) Record (KPIT)
Temperature  
Mean Temperature 52 °F 50 °F  
Max Temperature 69 °F 61 °F 84 °F (2001)
Min Temperature 35 °F 39 °F 21 °F (1976)
Degree Days  
Heating Degree Days 13 15  
Month to date heating degree days 208  
Since 1 July heating degree days 5253  
Cooling Degree Days 0 0  
Month to date cooling degree days 0  
Year to date cooling degree days 1  
Growing Degree Days 2 (Base 50)    
Moisture  
Dew Point 35 °F    
Average Humidity 59    
Maximum Humidity 93    
Minimum Humidity 23    
Precipitation  
Precipitation 0.00 in 0.11 in 1.03 in (1948)
Month to date precipitation 1.24  
Year to date precipitation 9.28  
Snow  
Snow 0.00 in 0.10 in 3.10 in (1959)
Month to date snowfall 1.0  
Since 1 July snowfall 41.4  
Snow Depth -    
Sea Level Pressure  
Sea Level Pressure 30.13 in    
Wind  
Wind Speed 3 mph (SSE)    
Max Wind Speed 14 mph    
Max Gust Speed 22 mph    
Visibility 6 miles    
Events      
T = Trace of Precipitation, MM = Missing Value Source: NWS Daily Summary

Daily Weather History Graph

Daily Weather History Graph

Search for Another Location

Airport or City:

Trip Planner

Search our weather history database for the weather conditions in past years. The results will help you decide how hot, cold, wet, or windy it might be!

Date:

Astronomy

Apr. 12, 2014 Rise Set
Actual Time 6:45 AM EDT 7:56 PM EDT
Civil Twilight 6:17 AM EDT 8:24 PM EDT
Nautical Twilight 5:43 AM EDT 8:58 PM EDT
Astronomical Twilight 5:08 AM EDT 9:33 PM EDT
Moon 5:32 PM EDT (4/12) 5:12 AM EDT (4/12)
Length of Visible Light 14h 06m
Length of Day
13h 10m
Waxing Gibbous, 93% of the Moon is Illuminated
Apr 12
Waxing Gibbous
Apr 15
Full
Apr 22
Last Quarter
Apr 29
New
May 6
First Quarter

Hourly Weather History & Observations

Time (EDT) Temp. Windchill Dew Point Humidity Pressure Visibility Wind Dir Wind Speed Gust Speed Precip Events Conditions
12:15 AM 39.2 °F - 37.4 °F 93% 30.12 in 0.2 mi Calm Calm - N/A   Overcast
12:35 AM 37.4 °F - 35.6 °F 93% 30.13 in 0.2 mi Calm Calm - N/A   Overcast
12:55 AM 37.4 °F - 35.6 °F 93% 30.13 in 0.2 mi Calm Calm - N/A   Overcast
1:15 AM 35.6 °F - 33.8 °F 93% 30.13 in 0.2 mi Calm Calm - N/A   Overcast
1:35 AM 35.6 °F - 33.8 °F 93% 30.13 in 0.2 mi Calm Calm - N/A   Overcast
1:55 AM 37.4 °F - 33.8 °F 87% 30.13 in 0.5 mi Calm Calm - N/A   Overcast
2:15 AM 37.4 °F - 35.6 °F 93% 30.13 in 0.2 mi Calm Calm - N/A   Overcast
2:35 AM 37.4 °F - 35.6 °F 93% 30.12 in 0.2 mi Calm Calm - N/A   Overcast
2:55 AM 39.2 °F - 37.4 °F 93% 30.13 in 0.2 mi Calm Calm - N/A   Overcast
3:15 AM 39.2 °F - 37.4 °F 93% 30.14 in 0.2 mi Calm Calm - N/A   Overcast
3:35 AM 39.2 °F - 35.6 °F 87% 30.14 in 0.2 mi Calm Calm - N/A   Overcast
3:55 AM 39.2 °F - 35.6 °F 87% 30.16 in 0.2 mi Calm Calm - N/A   Overcast
4:15 AM 39.2 °F 37.0 °F 37.4 °F 93% 30.16 in 0.2 mi ESE 3.5 mph - N/A   Overcast
4:35 AM 39.2 °F - 37.4 °F 93% 30.16 in 0.2 mi Calm Calm - N/A   Overcast
4:55 AM 39.2 °F - 37.4 °F 93% 30.17 in 0.2 mi Calm Calm - N/A   Overcast
5:15 AM 39.2 °F - 37.4 °F 93% 30.18 in 0.2 mi Calm Calm - N/A   Overcast
5:35 AM 39.2 °F - 37.4 °F 93% 30.18 in 0.2 mi Calm Calm - N/A   Overcast
5:55 AM 39.2 °F 37.0 °F 37.4 °F 93% 30.18 in 0.2 mi East 3.5 mph - N/A   Overcast
6:15 AM 39.2 °F 37.0 °F 37.4 °F 93% 30.18 in 0.2 mi ENE 3.5 mph - N/A   Overcast
6:35 AM 37.4 °F 33.8 °F 35.6 °F 93% 30.18 in 0.2 mi NE 4.6 mph - N/A   Overcast
6:55 AM 37.4 °F - 35.6 °F 93% 30.20 in 0.2 mi Calm Calm - N/A   Overcast
7:15 AM 37.4 °F - 35.6 °F 93% 30.20 in 0.2 mi Calm Calm - N/A   Overcast
7:35 AM 37.4 °F 33.8 °F 35.6 °F 93% 30.20 in 0.2 mi NE 4.6 mph - N/A   Overcast
7:55 AM 37.4 °F - 35.6 °F 93% 30.21 in 0.2 mi Calm Calm - N/A   Overcast
8:15 AM 39.2 °F 35.0 °F 37.4 °F 93% 30.22 in 0.2 mi SSE 5.8 mph - N/A   Overcast
8:35 AM 39.2 °F 35.0 °F 37.4 °F 93% 30.23 in 0.2 mi SE 5.8 mph - N/A   Overcast
8:55 AM 39.2 °F 35.9 °F 37.4 °F 93% 30.22 in 1.5 mi ESE 4.6 mph - N/A   Overcast
9:15 AM 42.8 °F 39.3 °F 39.2 °F 87% 30.22 in 5.0 mi ESE 5.8 mph - N/A   Mostly Cloudy
9:55 AM 44.6 °F 42.2 °F 42.8 °F 93% 30.22 in 10.0 mi SSE 4.6 mph - N/A   Clear
10:15 AM 46.4 °F 45.2 °F 44.6 °F 93% 30.22 in 10.0 mi SE 3.5 mph - N/A   Clear
10:35 AM 48.2 °F - 44.6 °F 87% 30.23 in 10.0 mi SE 5.8 mph - N/A   Clear
10:55 AM 50.0 °F - 44.6 °F 82% 30.23 in 10.0 mi South 8.1 mph - N/A   Clear
11:15 AM 51.8 °F - 46.4 °F 82% 30.24 in 10.0 mi South 6.9 mph - N/A   Clear
11:35 AM 53.6 °F - 44.6 °F 72% 30.23 in 10.0 mi South 6.9 mph - N/A   Clear
11:55 AM 60.8 °F - 44.6 °F 55% 30.23 in 10.0 mi SSE 5.8 mph - N/A   Clear
12:15 PM 60.8 °F - 44.6 °F 55% 30.21 in 10.0 mi South 6.9 mph - N/A   Clear
12:35 PM 62.6 °F - 44.6 °F 52% 30.21 in 10.0 mi South 8.1 mph - N/A   Clear
12:55 PM 64.4 °F - 37.4 °F 37% 30.19 in 10.0 mi South 10.4 mph 17.3 mph N/A   Clear
1:15 PM 66.2 °F - 35.6 °F 32% 30.18 in 10.0 mi South 8.1 mph - N/A   Clear
1:35 PM 66.2 °F - 33.8 °F 30% 30.16 in 10.0 mi South 12.7 mph 17.3 mph N/A   Clear
1:55 PM 66.2 °F - 33.8 °F 30% 30.16 in 10.0 mi South 10.4 mph 17.3 mph N/A   Clear
2:15 PM 66.2 °F - 33.8 °F 30% 30.15 in 10.0 mi SE 13.8 mph 21.9 mph N/A   Clear
2:35 PM 68.0 °F - 33.8 °F 28% 30.14 in 10.0 mi South 8.1 mph 17.3 mph N/A   Clear
2:55 PM 68.0 °F - 33.8 °F 28% 30.13 in 10.0 mi SSE 10.4 mph 16.1 mph N/A   Clear
3:15 PM 69.8 °F - 32.0 °F 25% 30.13 in 10.0 mi SSE 8.1 mph - N/A   Clear
3:35 PM 69.8 °F - 33.8 °F 27% 30.12 in 10.0 mi South 6.9 mph 18.4 mph N/A   Clear
3:55 PM 69.8 °F - 33.8 °F 27% 30.11 in 10.0 mi South 9.2 mph 16.1 mph N/A   Clear
4:15 PM 69.8 °F - 32.0 °F 25% 30.10 in 10.0 mi SSW 12.7 mph 18.4 mph N/A   Clear
4:35 PM 69.8 °F - 30.2 °F 23% 30.10 in 10.0 mi SSW 13.8 mph 18.4 mph N/A   Clear
4:55 PM 69.8 °F - 30.2 °F 23% 30.09 in 10.0 mi SW 9.2 mph - N/A   Clear
5:15 PM 69.8 °F - 30.2 °F 23% 30.09 in 10.0 mi SSW 12.7 mph 16.1 mph N/A   Clear
5:35 PM 69.8 °F - 32.0 °F 25% 30.08 in 10.0 mi South 8.1 mph - N/A   Clear
5:55 PM 69.8 °F - 32.0 °F 25% 30.07 in 10.0 mi South 9.2 mph - N/A   Clear
6:15 PM 69.8 °F - 32.0 °F 25% 30.07 in 10.0 mi South 8.1 mph - N/A   Clear
6:35 PM 69.8 °F - 32.0 °F 25% 30.06 in 10.0 mi South 5.8 mph - N/A   Clear
6:55 PM 69.8 °F - 32.0 °F 25% 30.05 in 10.0 mi SSE 5.8 mph - N/A   Clear
7:15 PM 69.8 °F - 30.2 °F 23% 30.05 in 10.0 mi South 6.9 mph - N/A   Clear
7:35 PM 68.0 °F - 30.2 °F 24% 30.05 in 10.0 mi South 4.6 mph - N/A   Clear
7:55 PM 66.2 °F - 30.2 °F 26% 30.04 in 10.0 mi SSE 3.5 mph - N/A   Clear
8:15 PM 66.2 °F - 30.2 °F 26% 30.03 in 10.0 mi SE 3.5 mph - N/A   Clear
8:35 PM 66.2 °F - 28.4 °F 24% 30.03 in 10.0 mi SSE 4.6 mph - N/A   Clear
8:55 PM 64.4 °F - 28.4 °F 26% 30.03 in 10.0 mi SE 3.5 mph - N/A   Clear
9:15 PM 64.4 °F - 28.4 °F 26% 30.03 in 10.0 mi SE 3.5 mph - N/A   Clear
9:35 PM 62.6 °F - 30.2 °F 30% 30.03 in 10.0 mi ESE 4.6 mph - N/A   Clear
9:55 PM 62.6 °F - 30.2 °F 30% 30.02 in 10.0 mi ESE 5.8 mph - N/A   Clear
10:15 PM 62.6 °F - 30.2 °F 30% 30.01 in 10.0 mi ESE 6.9 mph - N/A   Partly Cloudy
10:35 PM 64.4 °F - 30.2 °F 28% 30.00 in 10.0 mi ESE 5.8 mph - N/A   Mostly Cloudy
10:55 PM 62.6 °F - 30.2 °F 30% 30.00 in 10.0 mi ESE 6.9 mph - N/A   Overcast
11:15 PM 62.6 °F - 30.2 °F 30% 29.99 in 10.0 mi SE 4.6 mph - N/A   Mostly Cloudy
11:35 PM 62.6 °F - 30.2 °F 30% 29.98 in 10.0 mi SE 5.8 mph - N/A   Scattered Clouds
11:55 PM 60.8 °F - 30.2 °F 31% 29.98 in 10.0 mi ESE 5.8 mph - N/A   Clear